Location: ?ern� Novina
(50.6762°N, 14.8696°E)
Time: 14:01:15
(UTC+00:00)

CZ-2C R/B - Pass Details

Date: 03 March 2021
Orbit: 784 x 871 km, 98.2° (Epoch: 10 April)

Event Time Altitude Azimuth Distance (km) Brightness Sun altitude
Rises 17:58:55 0° 16° (NNE) 3,440 5.8 -12.4°
Reaches altitude 10° 18:01:22 10° 20° (NNE) 2,488 5.0 -12.8°
Maximum altitude 18:06:50 62° 101° (E) 942 2.7 -13.7°
Drops below altitude 10° 18:12:09 10° 182° (S) 2,414 5.0 -14.5°
Sets 18:14:29 0° 186° (S) 3,329 5.8 -14.9°
